Location: Easter Hill Village
(37.9235°N, 122.3444°W)
Time: 06:45:03
(UTC+00:00)

Iridium 4 Rocket - Pass Details

Date: 16 September 2019
Orbit: 585 x 904 km, 86.9° (Epoch: 20 October)

Event Time Altitude Azimuth Distance (km) Brightness Sun altitude
Exits shadow 12:53:59 11° 223° (SW) 2,058 5.2 -12.1°
Maximum altitude 12:57:38 26° 277° (W) 1,312 4.2 -11.4°
Drops below altitude 10° 13:01:22 10° 334° (NNW) 2,024 5.6 -10.7°
Sets 13:03:50 0° 348° (NNW) 2,896 6.5 -10.2°
